When you browse on this site, cookies collect data to enhance your experience and personalize the content and advertising you see.
Visit our Privacy Policy to learn more. By continuing to use the site, you agree to this use of cookies and data.
  • In Romania
  • List of Countries
  • For 7 days
  • Water Temperature
  • Satellite Maps
  • Weather Map
  • Weather Widgets
  • user-avatar
    Login

    Hourly Weather Razgrad

    Today, 27 May, Monday

    Time Temperature Precipitation Wind Pressure Humidity
    00:00 +17°C° 0 mm 2 mps 742 mmHg 84%
    01:00 +16°C° 0 mm 2 mps 742 mmHg 85%
    02:00 +16°C° 0 mm 2 mps 742 mmHg 86%
    03:00 +16°C° 0 mm 2 mps 742 mmHg 87%
    04:00 +16°C° 0 mm 2 mps 742 mmHg 87%
    05:00 +15°C° 0 mm 2 mps 742 mmHg 88%
    06:00 +18°C° 0 mm 2 mps 742 mmHg 83%
    07:00 +20°C° 0 mm 3 mps 742 mmHg 78%
    08:00 +22°C° 0 mm 3 mps 742 mmHg 73%
    09:00 +24°C° 0 mm 3 mps 742 mmHg 68%
    10:00 +26°C° 0 mm 4 mps 742 mmHg 63%
    11:00 +27°C° 0 mm 4 mps 742 mmHg 59%
    12:00 +27°C° 0 mm 5 mps 742 mmHg 57%
    13:00 +28°C° 0 mm 5 mps 742 mmHg 56%
    14:00 +28°C° 0 mm 5 mps 741 mmHg 55%
    15:00 +28°C° 0 mm 5 mps 741 mmHg 57%
    16:00 +27°C° 0 mm 5 mps 741 mmHg 60%
    17:00 +26°C° 0 mm 5 mps 740 mmHg 62%
    18:00 +23°C° 0 mm 5 mps 740 mmHg 66%
    19:00 +21°C° 0 mm 5 mps 740 mmHg 69%
    20:00 +19°C° 0 mm 4 mps 740 mmHg 73%
    21:00 +18°C° 0 mm 4 mps 740 mmHg 73%
    22:00 +17°C° 0 mm 4 mps 740 mmHg 73%
    23:00 +17°C° 0 mm 4 mps 740 mmHg 74%

    Tomorrow, 28 May, Tuesday

    Time Temperature Precipitation Wind Pressure Humidity
    00:00 +15°C° 0 mm 4 mps 740 mmHg 75%
    01:00 +16°C° 0 mm 3 mps 740 mmHg 76%
    02:00 +16°C° 0 mm 3 mps 740 mmHg 77%
    03:00 +14°C° 0 mm 3 mps 739 mmHg 78%
    04:00 +14°C° 0 mm 3 mps 739 mmHg 79%
    05:00 +14°C° 0 mm 3 mps 739 mmHg 80%
    06:00 +17°C° 0 mm 4 mps 739 mmHg 75%
    07:00 +19°C° 0 mm 4 mps 739 mmHg 71%
    08:00 +22°C° 0 mm 4 mps 739 mmHg 66%
    09:00 +25°C° 0 mm 5 mps 739 mmHg 61%
    10:00 +26°C° 0 mm 6 mps 738 mmHg 56%
    11:00 +28°C° 0 mm 6 mps 738 mmHg 50%
    12:00 +29°C° 0 mm 6 mps 738 mmHg 49%
    13:00 +30°C° 0 mm 7 mps 737 mmHg 48%
    14:00 +30°C° 0 mm 7 mps 737 mmHg 46%
    15:00 +30°C° 0 mm 6 mps 737 mmHg 50%
    16:00 +29°C° 0 mm 5 mps 736 mmHg 53%
    17:00 +29°C° 0 mm 5 mps 736 mmHg 56%
    18:00 +27°C° 0 mm 5 mps 736 mmHg 56%
    19:00 +23°C° 0 mm 5 mps 736 mmHg 55%
    20:00 +21°C° 0 mm 5 mps 735 mmHg 55%
    21:00 +20°C° 0 mm 5 mps 736 mmHg 57%
    22:00 +19°C° 0 mm 4 mps 736 mmHg 60%
    23:00 +18°C° 0 mm 4 mps 736 mmHg 62%

    Day after tomorrow, 29 May, Wednesday

    Time Temperature Precipitation Wind Pressure Humidity
    00:00 +18°C° 0 mm 4 mps 736 mmHg 64%
    01:00 +18°C° 0 mm 4 mps 736 mmHg 66%
    02:00 +17°C° 0 mm 3 mps 736 mmHg 68%
    03:00 +17°C° 0 mm 3 mps 736 mmHg 71%
    04:00 +17°C° 0 mm 3 mps 736 mmHg 74%
    05:00 +17°C° 0 mm 3 mps 737 mmHg 77%
    06:00 +19°C° 0 mm 3 mps 737 mmHg 75%
    07:00 +21°C° 0 mm 2 mps 737 mmHg 72%
    08:00 +24°C° 0 mm 2 mps 738 mmHg 70%
    09:00 +25°C° 0 mm 2 mps 738 mmHg 65%
    10:00 +26°C° 0 mm 2 mps 738 mmHg 59%
    11:00 +27°C° 0 mm 2 mps 738 mmHg 54%
    12:00 +28°C° 0 mm 1 mps 738 mmHg 53%
    13:00 +28°C° 0 mm 1 mps 738 mmHg 52%
    14:00 +28°C° 0 mm 1 mps 738 mmHg 51%
    15:00 +28°C° 0 mm 1 mps 738 mmHg 53%
    16:00 +28°C° 0 mm 1 mps 737 mmHg 54%
    17:00 +28°C° 0 mm 1 mps 737 mmHg 56%
    18:00 +27°C° 0 mm 1 mps 737 mmHg 59%
    19:00 +25°C° 0 mm 1 mps 738 mmHg 62%
    20:00 +24°C° 0 mm 1 mps 738 mmHg 65%
    21:00 +23°C° 0.2 mm 1 mps 738 mmHg 71%
    22:00 +22°C° 0.2 mm 1 mps 738 mmHg 76%
    23:00 +18°C° 0.2 mm 0 mps 739 mmHg 81%

    30 May, Thursday

    Time Temperature Precipitation Wind Pressure Humidity
    00:00 +18°C° 0 mm 0 mps 739 mmHg 83%
    01:00 +18°C° 0 mm 0 mps 739 mmHg 84%
    02:00 +17°C° 0 mm 0 mps 739 mmHg 85%
    03:00 +19°C° 0 mm 1 mps 739 mmHg 87%
    04:00 +19°C° 0 mm 1 mps 739 mmHg 88%
    05:00 +18°C° 0 mm 1 mps 739 mmHg 90%
    06:00 +20°C° 0 mm 1 mps 739 mmHg 85%
    07:00 +21°C° 0 mm 1 mps 739 mmHg 81%
    08:00 +23°C° 0 mm 2 mps 739 mmHg 76%
    09:00 +24°C° 0.5 mm 2 mps 739 mmHg 74%
    10:00 +25°C° 0.5 mm 2 mps 739 mmHg 72%
    11:00 +26°C° 0.5 mm 2 mps 739 mmHg 69%
    12:00 +27°C° 0.9 mm 2 mps 739 mmHg 66%
    13:00 +27°C° 0.9 mm 1 mps 739 mmHg 63%
    14:00 +28°C° 0.9 mm 1 mps 738 mmHg 60%
    15:00 +28°C° 0.9 mm 1 mps 738 mmHg 61%
    16:00 +27°C° 0.9 mm 1 mps 738 mmHg 62%
    17:00 +27°C° 0.9 mm 1 mps 738 mmHg 63%
    18:00 +25°C° 1.1 mm 1 mps 738 mmHg 70%
    19:00 +23°C° 1.1 mm 1 mps 738 mmHg 76%
    20:00 +21°C° 1.1 mm 1 mps 738 mmHg 83%
    21:00 +21°C° 0.4 mm 1 mps 739 mmHg 86%
    22:00 +19°C° 0.4 mm 2 mps 739 mmHg 89%
    23:00 +18°C° 0.4 mm 3 mps 739 mmHg 93%

    31 May, Friday

    Time Temperature Precipitation Wind Pressure Humidity
    00:00 +18°C° 0 mm 3 mps 739 mmHg 94%
    01:00 +17°C° 0 mm 4 mps 739 mmHg 95%
    02:00 +17°C° 0 mm 4 mps 739 mmHg 96%
    03:00 +17°C° 0.1 mm 4 mps 739 mmHg 96%
    04:00 +15°C° 0.1 mm 4 mps 739 mmHg 95%
    05:00 +16°C° 0.1 mm 3 mps 739 mmHg 95%
    06:00 +15°C° 0 mm 4 mps 739 mmHg 93%
    07:00 +17°C° 0 mm 4 mps 739 mmHg 91%
    08:00 +17°C° 0 mm 4 mps 739 mmHg 89%
    09:00 +18°C° 0 mm 4 mps 739 mmHg 87%
    10:00 +19°C° 0 mm 3 mps 739 mmHg 84%
    11:00 +19°C° 0 mm 3 mps 739 mmHg 82%
    12:00 +20°C° 0 mm 3 mps 738 mmHg 79%
    13:00 +21°C° 0 mm 3 mps 738 mmHg 77%
    14:00 +22°C° 0 mm 3 mps 738 mmHg 75%
    15:00 +22°C° 0.1 mm 3 mps 738 mmHg 75%
    16:00 +22°C° 0.1 mm 3 mps 738 mmHg 76%
    17:00 +22°C° 0.1 mm 3 mps 738 mmHg 76%
    18:00 +20°C° 0.1 mm 3 mps 738 mmHg 82%
    19:00 +19°C° 0.1 mm 3 mps 738 mmHg 87%
    20:00 +17°C° 0.1 mm 3 mps 738 mmHg 93%
    21:00 +17°C° 0 mm 3 mps 738 mmHg 94%
    22:00 +16°C° 0 mm 3 mps 738 mmHg 95%
    23:00 +14°C° 0 mm 3 mps 738 mmHg 95%

    1 June, Saturday

    Time Temperature Precipitation Wind Pressure Humidity
    00:00 +14°C° 0 mm 3 mps 737 mmHg 95%
    01:00 +13°C° 0 mm 3 mps 737 mmHg 95%
    02:00 +13°C° 0 mm 3 mps 737 mmHg 95%
    03:00 +12°C° 0 mm 3 mps 737 mmHg 94%
    04:00 +12°C° 0 mm 3 mps 737 mmHg 94%
    05:00 +12°C° 0 mm 3 mps 737 mmHg 94%
    06:00 +14°C° 0 mm 4 mps 737 mmHg 89%
    07:00 +15°C° 0 mm 4 mps 737 mmHg 85%
    08:00 +17°C° 0 mm 5 mps 737 mmHg 81%
    09:00 +19°C° 0 mm 5 mps 737 mmHg 78%
    10:00 +20°C° 0 mm 5 mps 737 mmHg 75%
    11:00 +21°C° 0 mm 5 mps 737 mmHg 72%
    12:00 +21°C° 0 mm 4 mps 737 mmHg 70%
    13:00 +22°C° 0 mm 4 mps 737 mmHg 69%
    14:00 +22°C° 0 mm 4 mps 737 mmHg 67%
    15:00 +22°C° 0.1 mm 3 mps 736 mmHg 68%
    16:00 +24°C° 0.1 mm 3 mps 736 mmHg 68%
    17:00 +24°C° 0.1 mm 3 mps 736 mmHg 69%
    18:00 +21°C° 0.2 mm 3 mps 736 mmHg 75%
    19:00 +19°C° 0.2 mm 3 mps 736 mmHg 82%
    20:00 +18°C° 0.2 mm 4 mps 737 mmHg 89%
    21:00 +17°C° 0.2 mm 4 mps 737 mmHg 90%
    22:00 +15°C° 0.2 mm 4 mps 737 mmHg 91%
    23:00 +15°C° 0.2 mm 5 mps 738 mmHg 92%
    Show more